Wind_Speed
41 45 47 47 49 50 51 53 54 54 53 55 56 57 57 56 57 57 56 55 54 52 51 50 49 47 46 45 43 40 38 37 35 33 31 30 29 28 27 26 26 25 25 25
41 44 44 47 48 50 52 53 54 54 53 54 57 59 59 58 58 58 57 56 55 54 53 52 50 50 48 47 44 42 40 38 36 34 33 32 31 29 28 27 26 26 26 26
40 39 41 45 48 50 52 53 52 52 54 56 57 60 60 60 59 59 59 58 56 55 54 53 52 51 50 48 46 44 42 40 38 36 35 34 32 31 29 28 28 28 28 28
38 38 40 43 46 48 50 51 52 52 53 56 57 61 61 60 61 61 60 60 58 56 55 55 53 52 51 50 48 46 44 42 40 39 37 35 34 32 31 30 30 30 30 30
36 37 40 42 42 45 47 49 51 52 53 55 57 61 63 60 62 61 60 60 59 58 57 56 54 53 52 51 50 48 46 45 42 41 39 37 35 34 33 32 32 31 31 31
33 35 38 39 40 43 45 47 50 51 53 57 56 59 64 61 60 60 60 60 60 59 58 57 56 55 54 52 51 51 49 47 45 43 41 39 37 36 35 34 34 33 33 32
33 34 36 37 38 41 44 47 48 50 53 57 54 59 63 57 56 58 59 59 59 59 59 59 57 56 55 54 52 52 51 49 47 45 43 41 39 38 37 36 35 35 34 34
33 33 34 36 36 37 40 45 48 49 50 53 53 58 59 54 53 54 57 58 59 60 60 60 58 57 56 55 53 52 51 50 48 46 44 42 41 40 39 38 37 36 35 35
32 31 31 32 35 37 39 43 44 45 47 49 53 54 54 53 53 52 54 56 57 58 58 58 58 57 56 56 54 52 51 50 49 48 46 44 43 42 40 39 38 38 37 36
30 29 28 29 32 36 39 40 41 43 45 47 49 50 52 52 51 51 50 51 53 57 58 58 57 57 56 55 54 53 52 51 50 49 48 46 44 42 42 41 40 39 38 38
29 30 28 27 28 31 38 42 42 43 44 45 47 48 46 47 48 49 49 49 50 53 55 56 56 56 56 54 54 54 53 51 50 49 48 46 45 44 43 42 41 40 39 38
28 30 29 29 26 29 34 39 42 45 46 45 44 43 40 42 44 46 45 46 47 49 52 54 54 55 55 54 53 53 53 52 50 49 48 47 45 45 43 42 41 40 39 38
27 29 29 28 28 29 32 36 40 43 45 44 43 41 40 38 40 43 44 44 45 47 50 51 52 53 54 53 52 52 52 52 50 49 48 48 46 45 43 42 40 40 39 38
28 29 29 28 28 30 34 36 39 42 44 44 42 39 38 38 38 40 42 43 43 44 46 49 50 51 52 53 52 51 51 50 50 48 47 46 45 44 42 41 40 39 39 38
27 28 29 30 30 33 35 36 38 41 43 45 41 39 37 36 37 38 41 41 41 42 43 45 48 49 51 52 52 50 49 49 48 47 46 44 44 43 42 41 40 39 39 38
26 28 29 30 30 33 36 37 38 39 41 43 43 42 38 37 36 36 39 41 41 41 41 43 45 47 49 50 50 49 48 47 47 46 45 44 43 42 41 40 39 38 38 37
27 27 29 30 30 33 35 35 36 37 38 42 43 41 40 39 39 37 36 40 42 42 42 43 44 44 46 47 48 49 48 47 46 45 44 44 43 41 40 39 38 37 37 36
27 25 27 29 30 33 29 32 34 36 38 41 42 41 40 39 39 39 38 38 40 41 41 42 43 44 45 45 46 47 47 46 44 44 43 43 42 40 39 38 37 37 36 35
26 26 27 28 31 31 28 28 31 34 37 40 41 41 42 40 40 39 39 40 40 40 41 42 42 43 43 43 44 44 44 43 42 41 40 40 40 38 38 37 36 36 35 35
24 26 27 28 29 31 27 26 27 32 35 37 40 42 41 41 40 39 39 39 39 41 42 42 42 43 43 43 42 42 41 40 39 39 38 38 37 37 36 36 35 34 34 33
23 25 26 28 29 29 27 26 28 32 33 34 39 41 42 41 39 38 39 39 40 40 42 42 42 42 42 41 41 40 40 39 39 38 37 37 36 35 34 34 34 33 33 33
23 24 26 27 29 27 25 28 30 32 34 33 36 40 43 43 41 39 40 40 41 40 41 41 42 42 41 41 41 40 39 38 38 37 36 35 35 34 33 33 32 32 32 32
25 25 27 29 29 27 26 29 30 33 35 35 36 39 42 43 42 41 40 40 40 40 40 41 41 41 41 40 40 40 39 38 37 36 35 34 34 33 33 32 31 31 31 30
26 27 28 29 28 27 27 29 31 32 35 35 36 37 39 41 43 42 42 42 41 40 40 40 40 41 40 39 39 39 39 38 36 35 34 33 33 32 32 31 31 30 30 30
28 29 30 30 28 28 29 30 31 33 34 35 36 36 37 38 40 42 43 44 43 42 41 40 40 40 39 39 39 38 38 37 36 34 33 32 31 31 31 30 30 30 29 29
26 28 29 29 28 30 30 32 33 32 33 34 35 36 36 36 37 39 41 42 43 42 41 41 41 41 40 40 39 37 37 36 35 34 33 32 31 30 30 30 29 29 29 29
Wind_Direction
249 246 244 243 242 241 239 238 237 234 234 237 236 233 229 228 228 227 226 226 225 225 224 224 224 224 223 224 224 225 227 229 230 232 233 235 237 240 243 247 252 255 259 262
250 248 245 243 241 240 239 238 237 236 235 237 237 234 230 228 227 227 226 226 225 225 224 224 224 225 224 225 225 226 228 230 232 233 235 236 238 240 244 248 252 256 259 262
251 250 247 244 241 240 238 238 237 238 237 237 238 236 231 228 227 227 226 225 225 225 225 225 225 225 226 226 226 227 229 231 233 234 235 237 239 242 246 250 253 257 260 263
250 246 244 242 240 238 238 236 238 237 238 237 236 238 232 230 229 227 226 225 225 225 225 226 226 226 227 227 228 229 230 232 233 235 236 238 241 244 247 251 254 257 261 264
252 247 243 241 240 240 238 235 237 238 238 238 235 238 233 231 230 227 226 226 226 226 226 226 227 227 228 229 229 230 231 233 234 235 237 239 242 245 248 251 255 258 261 264
253 246 244 242 240 239 237 236 236 237 238 238 234 237 236 230 230 229 227 227 227 227 227 227 227 228 228 229 230 230 231 233 234 236 238 240 242 246 249 252 256 258 261 264
251 246 244 243 241 237 235 234 235 236 236 238 235 237 235 229 229 229 228 227 226 227 228 227 227 228 228 230 231 232 232 234 235 237 239 241 243 246 249 252 255 259 261 264
253 248 245 243 241 238 235 233 233 235 237 238 236 237 234 229 229 229 228 227 227 227 228 228 228 229 229 230 232 233 234 235 236 238 239 241 243 247 250 252 255 258 262 264
256 251 243 244 241 237 234 232 232 234 236 238 238 237 233 230 229 229 229 228 228 228 228 228 229 229 229 230 231 233 235 236 236 238 240 241 244 247 250 253 255 258 262 264
254 252 244 245 243 238 235 231 226 228 233 236 237 235 232 230 229 229 229 228 229 229 228 228 229 229 230 230 231 232 234 236 237 238 240 242 244 247 250 252 255 258 261 264
252 254 248 245 242 237 232 229 226 227 231 233 237 235 231 232 231 230 229 227 228 229 229 229 229 229 230 231 231 231 233 235 237 239 240 242 244 247 249 252 255 258 260 263
253 255 252 245 241 239 236 231 228 228 230 232 235 233 229 230 229 228 227 226 228 228 228 229 229 229 230 231 231 232 232 234 236 239 241 242 244 246 249 251 255 257 260 262
252 253 252 247 242 234 230 225 226 227 230 230 232 227 224 226 226 226 224 225 227 228 228 228 229 229 229 230 230 231 232 233 235 238 240 242 244 246 249 251 254 256 259 262
252 252 250 248 241 233 229 225 224 225 228 228 228 225 223 224 224 223 224 224 225 227 227 227 228 228 229 229 230 232 233 234 235 237 239 242 244 246 249 251 254 256 259 261
254 252 250 248 242 235 230 227 226 227 228 229 224 223 222 223 222 220 221 222 223 224 225 225 227 227 228 228 230 232 233 234 235 236 239 241 244 247 249 251 253 255 257 260
259 258 250 246 242 238 233 228 227 228 229 228 226 224 224 225 222 219 220 220 222 223 222 222 224 226 227 227 228 230 232 233 234 236 238 241 243 245 248 250 252 255 257 260
261 260 254 247 243 239 235 229 230 229 227 226 228 227 227 228 224 220 218 218 220 221 219 219 221 223 224 226 227 229 230 232 233 236 238 240 242 244 247 249 252 255 257 259
261 260 256 250 244 242 237 232 233 231 228 228 228 227 229 229 226 223 219 217 218 219 219 218 219 220 221 224 225 227 229 231 233 235 237 239 242 244 246 248 251 254 256 259
262 259 255 252 247 244 239 235 234 232 230 228 228 227 227 227 227 223 220 218 217 217 217 216 217 218 219 222 224 225 227 230 232 234 236 237 239 242 245 247 250 252 255 258
261 257 254 251 249 245 238 234 232 233 232 228 227 227 226 226 226 222 221 219 218 216 215 215 215 216 217 219 222 224 226 229 231 233 235 236 238 241 244 247 249 251 254 257
259 258 256 252 251 248 239 234 229 230 228 227 226 225 224 224 223 220 220 220 222 218 214 214 214 215 216 218 219 222 224 226 228 230 233 235 237 239 243 246 248 249 252 255
260 258 255 251 250 247 239 234 230 229 227 227 227 224 224 225 222 220 219 220 222 219 215 214 214 213 214 216 217 219 221 224 227 229 231 234 236 239 242 245 248 250 252 256
261 258 254 251 249 245 238 233 230 228 229 228 228 226 225 224 223 221 219 219 219 218 215 214 213 212 213 215 216 218 220 222 225 228 230 233 236 239 242 245 248 250 253 257
259 257 255 252 247 242 238 233 231 229 228 228 227 226 224 222 222 221 220 218 217 216 213 213 213 213 212 212 214 217 219 221 224 228 230 233 236 239 241 244 247 250 253 257
259 257 255 254 248 242 236 234 231 228 227 226 226 226 224 221 221 220 219 218 217 215 214 213 213 214 214 213 213 215 218 221 224 227 229 232 236 238 241 244 247 251 254 258
257 255 255 253 248 243 234 231 229 227 226 225 225 225 221 218 218 218 217 216 216 216 215 213 212 213 215 215 214 216 219 222 224 227 230 233 235 237 240 243 247 251 255 259
Height
5575 5578 5583 5591 5595 5602 5607 5611 5617 5627 5635 5637 5643 5650 5659 5667 5673 5682 5690 5698 5706 5714 5722 5728 5735 5741 5747 5753 5759 5764 5769 5774 5778 5783 5787 5791 5794 5796 5799 5801 5803 5805 5806 5807
5563 5568 5576 5579 5582 5587 5592 5597 5605 5614 5622 5625 5630 5636 5645 5653 5661 5671 5679 5687 5696 5704 5712 5719 5726 5732 5739 5745 5752 5757 5763 5768 5773 5777 5781 5784 5787 5790 5793 5795 5798 5799 5800 5801
5552 5560 5562 5564 5568 5573 5579 5586 5595 5602 5609 5612 5617 5621 5631 5641 5649 5658 5667 5677 5685 5694 5703 5710 5717 5724 5731 5737 5744 5750 5756 5761 5766 5770 5774 5777 5781 5784 5787 5790 5792 5793 5794 5795
5543 5548 5550 5552 5557 5562 5568 5578 5583 5589 5593 5598 5605 5607 5619 5629 5637 5646 5657 5666 5676 5685 5693 5701 5708 5715 5723 5730 5736 5742 5748 5753 5758 5762 5767 5771 5775 5778 5781 5783 5785 5786 5788 5789
5533 5537 5539 5542 5548 5553 5559 5567 5571 5576 5580 5584 5591 5594 5605 5616 5624 5636 5647 5657 5667 5676 5684 5692 5699 5707 5714 5721 5727 5734 5739 5745 5750 5755 5760 5764 5768 5771 5773 5776 5778 5780 5781 5782
5523 5526 5528 5533 5539 5543 5548 5554 5558 5562 5566 5568 5579 5583 5590 5604 5616 5628 5638 5647 5657 5666 5674 5682 5690 5697 5704 5711 5718 5724 5730 5736 5742 5747 5752 5756 5760 5763 5766 5769 5771 5773 5774 5775
5513 5516 5519 5522 5527 5532 5536 5541 5545 5548 5551 5557 5570 5571 5579 5598 5608 5617 5627 5636 5646 5654 5662 5671 5679 5686 5694 5702 5709 5715 5721 5727 5733 5738 5744 5748 5752 5755 5758 5761 5763 5765 5767 5768
5502 5507 5510 5513 5517 5521 5526 5531 5536 5540 5545 5552 5559 5560 5574 5590 5598 5606 5615 5625 5633 5642 5651 5659 5668 5676 5684 5692 5699 5706 5712 5719 5724 5730 5735 5740 5744 5747 5750 5753 5756 5758 5760 5761
5494 5498 5503 5505 5508 5511 5515 5519 5528 5533 5537 5541 5546 5555 5566 5576 5585 5594 5603 5613 5621 5631 5640 5649 5658 5666 5674 5682 5690 5697 5703 5709 5715 5721 5726 5731 5735 5739 5742 5745 5748 5750 5752 5753
5486 5490 5494 5497 5499 5502 5507 5513 5518 5522 5527 5531 5537 5545 5556 5567 5576 5585 5594 5602 5611 5620 5629 5638 5647 5655 5664 5672 5680 5687 5693 5700 5706 5711 5717 5722 5726 5730 5734 5736 5739 5742 5744 5745
5480 5482 5486 5489 5492 5495 5499 5504 5508 5514 5519 5525 5530 5540 5551 5559 5569 5576 5584 5592 5600 5609 5618 5628 5637 5645 5653 5661 5668 5676 5683 5690 5696 5702 5707 5713 5717 5721 5725 5728 5731 5733 5735 5736
5473 5474 5477 5482 5486 5488 5492 5496 5501 5506 5512 5518 5523 5534 5544 5552 5559 5567 5574 5582 5590 5599 5608 5617 5626 5634 5642 5650 5658 5665 5673 5680 5687 5693 5698 5703 5708 5712 5715 5719 5722 5724 5726 5728
5466 5468 5470 5474 5479 5480 5483 5488 5493 5498 5504 5509 5516 5527 5536 5542 5549 5556 5565 5572 5580 5589 5597 5605 5614 5622 5631 5639 5647 5655 5663 5670 5677 5683 5688 5693 5698 5703 5707 5710 5713 5715 5717 5719
5459 5461 5464 5467 5470 5472 5476 5481 5485 5490 5495 5500 5508 5518 5527 5534 5541 5549 5556 5563 5571 5579 5587 5595 5604 5612 5621 5629 5637 5645 5653 5660 5667 5673 5678 5684 5689 5694 5698 5701 5704 5706 5708 5710
5451 5454 5456 5459 5462 5465 5468 5473 5478 5482 5488 5495 5503 5510 5518 5525 5532 5539 5547 5554 5562 5569 5577 5585 5594 5602 5610 5619 5627 5635 5643 5650 5656 5663 5669 5674 5680 5684 5688 5692 5695 5697 5699 5701
5445 5446 5448 5451 5454 5457 5460 5466 5471 5476 5482 5489 5495 5502 5511 5517 5524 5532 5538 5545 5554 5561 5568 5576 5584 5592 5601 5609 5618 5626 5633 5640 5647 5653 5659 5665 5670 5675 5679 5682 5685 5688 5690 5692
5439 5440 5441 5444 5447 5448 5453 5461 5466 5471 5476 5482 5488 5497 5502 5508 5516 5524 5530 5536 5544 5552 5559 5567 5575 5583 5592 5600 5608 5616 5624 5631 5637 5644 5650 5655 5660 5665 5669 5673 5676 5678 5681 5683
5433 5434 5435 5437 5440 5442 5451 5456 5459 5463 5469 5475 5481 5488 5494 5500 5508 5515 5522 5529 5536 5544 5551 5559 5567 5575 5583 5591 5599 5606 5614 5621 5628 5635 5641 5646 5651 5655 5660 5663 5666 5669 5672 5674
5427 5428 5429 5430 5432 5435 5443 5448 5452 5456 5462 5468 5474 5480 5486 5493 5500 5508 5514 5521 5528 5536 5543 5551 5559 5566 5574 5582 5590 5598 5605 5613 5619 5626 5632 5637 5642 5646 5650 5654 5657 5660 5662 5664
5421 5421 5423 5424 5426 5429 5438 5442 5445 5449 5453 5460 5465 5472 5479 5485 5492 5501 5507 5513 5520 5528 5535 5543 5550 5558 5566 5574 5582 5590 5597 5604 5611 5617 5623 5628 5632 5637 5641 5645 5648 5651 5653 5656
5414 5415 5416 5418 5419 5422 5431 5434 5437 5442 5448 5452 5456 5463 5470 5476 5485 5493 5499 5505 5512 5520 5528 5536 5543 5551 5559 5566 5574 5582 5589 5596 5602 5608 5614 5619 5623 5628 5632 5636 5639 5642 5645 5647
5407 5408 5410 5411 5412 5419 5423 5426 5430 5433 5439 5444 5448 5454 5461 5469 5476 5483 5490 5497 5505 5512 5520 5528 5536 5544 5551 5558 5566 5573 5581 5588 5594 5600 5605 5610 5615 5619 5623 5627 5630 5633 5636 5638
5400 5402 5402 5405 5408 5411 5414 5417 5421 5425 5430 5436 5441 5447 5453 5460 5467 5475 5483 5490 5498 5505 5512 5520 5528 5536 5543 5551 5559 5566 5573 5579 5586 5591 5597 5602 5606 5611 5615 5619 5622 5625 5628 5630
5392 5393 5394 5395 5399 5403 5405 5408 5412 5416 5421 5427 5432 5438 5444 5452 5459 5466 5475 5482 5490 5498 5505 5512 5520 5528 5536 5543 5551 5558 5565 5571 5578 5584 5589 5594 5599 5603 5607 5611 5614 5617 5619 5621
5384 5385 5385 5387 5391 5394 5397 5400 5404 5408 5413 5418 5424 5430 5436 5443 5451 5458 5466 5474 5482 5490 5498 5505 5513 5521 5528 5536 5544 5551 5558 5564 5570 5576 5581 5586 5591 5595 5599 5603 5606 5609 5611 5613
5377 5377 5378 5379 5383 5384 5388 5391 5395 5399 5405 5410 5416 5422 5428 5435 5443 5450 5458 5466 5474 5482 5490 5498 5506 5514 5521 5529 5536 5544 5550 5557 5563 5569 5574 5579 5583 5587 5591 5595 5598 5600 5603 5605